EW1931 Weather Reports


time (UTC)temp
F
wind
direction
speed
knots
gust
knots
rain 1hr
in
rain 24hr
in
rain mn
in
humidity
%
barometer
mb
20260506200003 62 225 6.1 18.2 0.00 0.00 0.00 23 926.4
20260506194600 61 298 3.5 14.8 0.00 0.00 0.00 23 926.6
20260506193038 60 231 11.3 14.8 0.00 0.00 0.00 23 927.0
20260506191533 59 222 7.8 10.4 0.00 0.00 0.00 24 927.2
20260506190012 58 192 7.8 20.0 0.00 0.00 0.00 24 927.6
20260506184510 58 178 9.6 14.8 0.00 0.00 0.00 24 927.8
20260506183043 57 186 2.6 13.9 0.00 0.00 0.00 24 928.0
20260506181557 55 248 4.3 12.2 0.00 0.00 0.00 25 928.3
20260506180021 55 199 8.7 18.2 0.00 0.00 0.00 26 928.5
20260506174516 54 226 6.1 14.8 0.00 0.00 0.00 28 928.9
20260506173122 53 180 7.0 13.9 0.00 0.00 0.00 30 929.2
20260506171602 53 224 4.3 11.3 0.00 0.00 0.00 31 929.5
20260506170033 52 229 7.8 11.3 0.00 0.00 0.00 35 929.5
20260506164530 51 153 7.0 13.0 0.00 0.00 0.00 35 929.7
20260506163010 49 184 7.0 10.4 0.00 0.00 0.00 41 930.0
20260506161505 48 178 7.8 13.9 0.00 0.00 0.00 46 930.2
20260506160058 45 189 8.7 12.2 0.00 0.00 0.00 49 930.4
20260506154544 44 185 7.0 11.3 0.00 0.00 0.00 50 930.8
20260506153020 43 207 6.1 7.8 0.00 0.00 0.00 51 931.1
20260506151518 42 192 6.1 10.4 0.00 0.00 0.00 51 931.2
20260506144554 38 196 6.1 9.6 0.00 0.00 0.00 52 931.6
20260506143035 36 213 4.3 6.1 0.00 0.00 0.00 51 931.7
20260506141528 34 197 4.3 7.8 0.00 0.00 0.00 52 931.8
20260506140007 33 190 4.3 7.0 0.00 0.00 0.00 53 931.7
20260506134504 32 175 3.5 5.2 0.00 0.00 0.00 54 931.8
20260506133045 31 198 3.5 5.2 0.00 0.00 0.00 56 931.8
20260506131555 29 201 3.5 5.2 0.00 0.00 0.00 60 931.9
20260506130033 27 211 4.3 6.1 0.00 0.00 0.00 62 931.9
20260506124518 24 211 4.3 5.2 0.00 0.00 0.00 64 932.0
20260506123101 23 198 2.6 4.3 0.00 0.00 0.00 64 931.9
20260506123001 23 197 3.5 6.1 0.00 0.00 0.00 64 931.9
20260506121601 23 194 5.2 6.1 0.00 0.00 0.00 63 932.1
20260506120038 25 175 3.5 6.1 0.00 0.00 0.00 61 932.0
20260506114537 25 247 2.6 3.5 0.00 0.00 0.00 62 932.1
20260506113023 25 247 1.7 3.5 0.00 0.00 0.00 61 932.2
20260506111517 25 247 2.6 3.5 0.00 0.00 0.00 62 932.3
20260506110116 26 247 2.6 3.5 0.00 0.00 0.00 59 932.4
20260506104558 26 247 3.5 4.3 0.00 0.00 0.00 62 932.6
20260506103056 25 247 2.6 5.2 0.00 0.00 0.00 62 932.7
20260506101537 24 252 3.5 5.2 0.00 0.00 0.00 61 932.8
20260506100037 26 264 3.5 4.3 0.00 0.00 0.00 60 932.9
20260506094513 26 273 3.5 4.3 0.00 0.00 0.00 60 933.0
20260506093013 26 273 3.5 4.3 0.00 0.00 0.00 59 932.9
20260506091552 27 273 3.5 5.2 0.00 0.00 0.00 57 933.1
20260506090050 28 235 5.2 7.8 0.00 0.00 0.00 55 933.2
20260506084532 30 205 5.2 7.0 0.00 0.00 0.00 53 933.2
20260506083031 27 200 3.5 5.2 0.00 0.00 0.00 54 933.3
20260506081514 27 36 0.0 0.0 0.00 0.00 0.00 54 933.4
20260506073055 29 36 0.9 2.6 0.00 0.00 0.00 55 933.6
20260506071541 28 36 1.7 2.6 0.00 0.00 0.00 56 933.8
20260506061556 28 68 2.6 3.5 0.00 0.00 0.00 54 933.9
20260506060117 29 68 2.6 4.3 0.00 0.00 0.00 53 933.9
20260506044611 31 355 6.1 7.0 0.00 0.00 0.00 50 934.0
20260506043055 31 355 5.2 7.0 0.00 0.00 0.00 49 933.8
20260506041537 32 355 5.2 7.8 0.00 0.00 0.00 47 933.9
20260506040037 33 5 4.3 7.8 0.00 0.00 0.00 46 933.9
20260506034519 34 348 5.2 7.8 0.00 0.00 0.00 45 933.9
20260506033018 35 348 6.1 7.8 0.00 0.00 0.00 44 933.9
20260506031600 37 341 5.2 7.8 0.00 0.00 0.00 43 933.9
20260506030058 38 360 5.2 7.8 0.00 0.00 0.00 40 933.7
20260506024553 41 342 5.2 9.6 0.00 0.00 0.00 38 933.6
20260506023044 43 360 6.1 10.4 0.00 0.00 0.00 36 933.5
20260506021542 44 13 6.1 9.6 0.00 0.00 0.00 34 933.3
20260506020041 46 21 11.3 14.8 0.00 0.00 0.00 33 933.2
20260506014641 47 346 7.8 14.8 0.00 0.00 0.00 32 933.2
20260506013039 47 342 11.3 15.6 0.00 0.00 0.00 30 933.1
20260506011538 48 326 13.0 19.1 0.00 0.00 0.00 31 933.1
20260506010038 48 348 13.0 18.2 0.00 0.00 0.00 30 932.9
20260506004519 48 360 9.6 15.6 0.00 0.00 0.00 32 932.8
20260506003019 49 5 11.3 17.4 0.00 0.00 0.00 32 932.8
20260506001501 49 14 8.7 22.6 0.00 0.00 0.00 31 932.8
20260506000001 49 24 10.4 22.6 0.00 0.00 0.00 31 932.7
20260505234548 50 17 13.9 19.1 0.00 0.00 0.00 32 932.7
20260505233042 49 360 14.8 22.6 0.00 0.00 0.00 32 932.7
20260505231524 50 19 13.9 23.5 0.00 0.00 0.00 31 932.7
20260505230044 50 347 13.0 19.1 0.00 0.00 0.00 31 932.5
20260505224505 50 347 17.4 23.5 0.00 0.00 0.00 30 932.5
20260505223004 51 5 13.0 21.7 0.00 0.00 0.00 31 932.5
20260505221546 50 342 11.3 20.9 0.00 0.00 0.00 33 932.5
20260505220044 49 340 14.8 21.7 0.00 0.00 0.00 32 932.6
20260505214527 52 347 16.5 23.5 0.00 0.00 0.00 31 932.6
20260505213025 51 348 15.6 24.3 0.00 0.00 0.00 33 932.6
20260505211512 51 5 13.0 20.9 0.00 0.00 0.00 33 932.7
20260505210008 49 338 13.9 20.9 0.00 0.00 0.00 35 932.6
20260505204550 49 346 10.4 22.6 0.00 0.00 0.00 34 932.6
20260505203047 48 360 13.0 24.3 0.00 0.00 0.00 34 932.7
20260505201529 49 10 13.9 20.9 0.00 0.00 0.00 33 932.8